17.07.2024;19:00;16
17.07.2024;18:00;19
17.07.2024;17:00;19
17.07.2024;16:00;11
17.07.2024;15:00;9
17.07.2024;14:00;7
17.07.2024;13:00;6
17.07.2024;12:00;9
17.07.2024;11:00;10
17.07.2024;10:00;6
17.07.2024;09:00;4
17.07.2024;08:00;5
17.07.2024;07:00;8
17.07.2024;06:00;10
17.07.2024;05:00;12
17.07.2024;04:00;10
17.07.2024;03:00;6
17.07.2024;02:00;4
17.07.2024;01:00;4
16.07.2024;24:00;#
16.07.2024;23:00;6
16.07.2024;22:00;8
16.07.2024;21:00;7
16.07.2024;20:00;8
16.07.2024;19:00;7
16.07.2024;18:00;9
16.07.2024;17:00;10
16.07.2024;16:00;12
16.07.2024;15:00;9
16.07.2024;14:00;9
16.07.2024;13:00;11
16.07.2024;12:00;#
16.07.2024;11:00;7
16.07.2024;10:00;7
16.07.2024;09:00;12
16.07.2024;08:00;6
16.07.2024;07:00;2
16.07.2024;06:00;3
16.07.2024;05:00;3
16.07.2024;04:00;3
16.07.2024;03:00;4
16.07.2024;02:00;23
16.07.2024;01:00;20
15.07.2024;24:00;17
15.07.2024;23:00;21
15.07.2024;22:00;20
15.07.2024;21:00;18
15.07.2024;20:00;17
15.07.2024;19:00;17
15.07.2024;18:00;19
15.07.2024;17:00;15
15.07.2024;16:00;13
15.07.2024;15:00;15
15.07.2024;14:00;16
15.07.2024;13:00;16
15.07.2024;12:00;11
15.07.2024;11:00;7
15.07.2024;10:00;7
15.07.2024;09:00;11
15.07.2024;08:00;12
15.07.2024;07:00;12
15.07.2024;06:00;11
15.07.2024;05:00;12
15.07.2024;04:00;12
15.07.2024;03:00;13
15.07.2024;02:00;14
15.07.2024;01:00;14
14.07.2024;24:00;12
14.07.2024;23:00;10
14.07.2024;22:00;10
14.07.2024;21:00;13
14.07.2024;20:00;13
14.07.2024;19:00;12
14.07.2024;18:00;11
14.07.2024;17:00;9
14.07.2024;16:00;10
14.07.2024;15:00;9
14.07.2024;14:00;7
14.07.2024;13:00;7
14.07.2024;12:00;7
14.07.2024;11:00;11
14.07.2024;10:00;10
14.07.2024;09:00;13
14.07.2024;08:00;13
14.07.2024;07:00;13
14.07.2024;06:00;14
14.07.2024;05:00;16
14.07.2024;04:00;14
14.07.2024;03:00;12
14.07.2024;02:00;9
14.07.2024;01:00;8
13.07.2024;24:00;8
13.07.2024;23:00;9
13.07.2024;22:00;7
13.07.2024;21:00;5
13.07.2024;20:00;6
13.07.2024;19:00;4
13.07.2024;18:00;3
13.07.2024;17:00;3
13.07.2024;16:00;2
13.07.2024;15:00;1
13.07.2024;14:00;0
13.07.2024;13:00;1
13.07.2024;12:00;1
13.07.2024;11:00;0
13.07.2024;10:00;1
13.07.2024;09:00;1
13.07.2024;08:00;1
13.07.2024;07:00;1
13.07.2024;06:00;1
13.07.2024;05:00;1
13.07.2024;04:00;0
13.07.2024;03:00;1
13.07.2024;02:00;1
13.07.2024;01:00;0
12.07.2024;24:00;#
12.07.2024;23:00;1
12.07.2024;22:00;10
12.07.2024;21:00;12
12.07.2024;20:00;11
12.07.2024;19:00;10
12.07.2024;18:00;9
12.07.2024;17:00;7
12.07.2024;16:00;6
12.07.2024;15:00;4
12.07.2024;14:00;4
12.07.2024;13:00;8
12.07.2024;12:00;10
12.07.2024;11:00;8
12.07.2024;10:00;4
12.07.2024;09:00;2
12.07.2024;08:00;3
12.07.2024;07:00;7
12.07.2024;06:00;6
12.07.2024;05:00;6
12.07.2024;04:00;7
12.07.2024;03:00;7
12.07.2024;02:00;10
12.07.2024;01:00;17
